Tiempo cada hora Barnowko

Hoy, 15 Mayo, Sábado

Tiempo Temperatura Precipitaciones Viento Presión Humedad
00:00 +7°C° 0.1 mm 3 mps 751 mmHg 95%
01:00 +7°C° 0 mm 3 mps 751 mmHg 95%
02:00 +5°C° 0 mm 3 mps 751 mmHg 95%
03:00 +6°C° 0 mm 2 mps 751 mmHg 94%
04:00 +5°C° 0 mm 2 mps 751 mmHg 94%
05:00 +7°C° 0 mm 2 mps 751 mmHg 90%
06:00 +9°C° 0 mm 2 mps 751 mmHg 86%
07:00 +10°C° 0 mm 2 mps 752 mmHg 82%
08:00 +13°C° 0.1 mm 2 mps 751 mmHg 77%
09:00 +14°C° 0.1 mm 3 mps 751 mmHg 71%
10:00 +17°C° 0.1 mm 3 mps 751 mmHg 65%
11:00 +17°C° 0.4 mm 3 mps 751 mmHg 64%
12:00 +18°C° 0.4 mm 4 mps 750 mmHg 63%
13:00 +18°C° 0.4 mm 4 mps 750 mmHg 62%
14:00 +18°C° 0.3 mm 4 mps 750 mmHg 62%
15:00 +18°C° 0.3 mm 4 mps 750 mmHg 62%
16:00 +18°C° 0.3 mm 3 mps 750 mmHg 63%
17:00 +16°C° 0.3 mm 3 mps 749 mmHg 69%
18:00 +14°C° 0.3 mm 3 mps 749 mmHg 75%
19:00 +13°C° 0.3 mm 3 mps 749 mmHg 81%
20:00 +13°C° 0.1 mm 2 mps 749 mmHg 84%
21:00 +12°C° 0.1 mm 2 mps 749 mmHg 86%
22:00 +10°C° 0.1 mm 2 mps 749 mmHg 89%
23:00 +10°C° 0 mm 2 mps 749 mmHg 90%

Mañana, 16 Mayo, Domingo

Tiempo Temperatura Precipitaciones Viento Presión Humedad
00:00 +9°C° 0 mm 2 mps 749 mmHg 91%
01:00 +8°C° 0 mm 2 mps 749 mmHg 92%
02:00 +9°C° 0 mm 2 mps 749 mmHg 93%
03:00 +9°C° 0 mm 2 mps 749 mmHg 94%
04:00 +9°C° 0 mm 2 mps 749 mmHg 95%
05:00 +9°C° 0 mm 3 mps 749 mmHg 92%
06:00 +10°C° 0 mm 3 mps 749 mmHg 89%
07:00 +11°C° 0 mm 4 mps 749 mmHg 86%
08:00 +12°C° 0.1 mm 4 mps 749 mmHg 80%
09:00 +13°C° 0.1 mm 5 mps 749 mmHg 74%
10:00 +14°C° 0.1 mm 5 mps 749 mmHg 68%
11:00 +14°C° 0.2 mm 5 mps 749 mmHg 68%
12:00 +14°C° 0.2 mm 5 mps 749 mmHg 68%
13:00 +14°C° 0.2 mm 5 mps 749 mmHg 68%
14:00 +15°C° 0.1 mm 4 mps 749 mmHg 66%
15:00 +15°C° 0.1 mm 4 mps 749 mmHg 65%
16:00 +15°C° 0.1 mm 4 mps 748 mmHg 63%
17:00 +14°C° 0.1 mm 3 mps 748 mmHg 69%
18:00 +14°C° 0.1 mm 2 mps 748 mmHg 75%
19:00 +13°C° 0.1 mm 2 mps 748 mmHg 80%
20:00 +12°C° 0 mm 2 mps 748 mmHg 83%
21:00 +12°C° 0 mm 2 mps 748 mmHg 86%
22:00 +10°C° 0 mm 2 mps 748 mmHg 88%
23:00 +9°C° 0 mm 2 mps 748 mmHg 90%

Pasado mañana, 17 Mayo, Lunes

Tiempo Temperatura Precipitaciones Viento Presión Humedad
00:00 +9°C° 0 mm 2 mps 748 mmHg 92%
01:00 +8°C° 0 mm 2 mps 748 mmHg 94%
02:00 +8°C° 0 mm 2 mps 748 mmHg 95%
03:00 +8°C° 0 mm 2 mps 748 mmHg 95%
04:00 +8°C° 0 mm 2 mps 748 mmHg 95%
05:00 +9°C° 0 mm 2 mps 748 mmHg 92%
06:00 +10°C° 0 mm 3 mps 748 mmHg 90%
07:00 +10°C° 0 mm 3 mps 749 mmHg 87%
08:00 +12°C° 0.1 mm 3 mps 749 mmHg 80%
09:00 +13°C° 0.1 mm 4 mps 749 mmHg 73%
10:00 +15°C° 0.1 mm 5 mps 748 mmHg 67%
11:00 +15°C° 0.3 mm 5 mps 748 mmHg 66%
12:00 +15°C° 0.3 mm 5 mps 748 mmHg 66%
13:00 +16°C° 0.3 mm 6 mps 748 mmHg 65%
14:00 +15°C° 0.1 mm 6 mps 748 mmHg 66%
15:00 +15°C° 0.1 mm 5 mps 749 mmHg 67%
16:00 +14°C° 0.1 mm 5 mps 749 mmHg 68%
17:00 +14°C° 0.2 mm 5 mps 749 mmHg 73%
18:00 +13°C° 0.2 mm 4 mps 749 mmHg 78%
19:00 +12°C° 0.2 mm 4 mps 749 mmHg 84%
20:00 +11°C° 0 mm 4 mps 749 mmHg 87%
21:00 +10°C° 0 mm 4 mps 749 mmHg 91%
22:00 +9°C° 0 mm 3 mps 750 mmHg 94%
23:00 +8°C° 0 mm 4 mps 750 mmHg 94%

18 Mayo, Martes

Tiempo Temperatura Precipitaciones Viento Presión Humedad
00:00 +8°C° 0 mm 4 mps 750 mmHg 93%
01:00 +8°C° 0 mm 4 mps 749 mmHg 93%
02:00 +8°C° 0 mm 4 mps 750 mmHg 94%
03:00 +7°C° 0 mm 4 mps 750 mmHg 95%
04:00 +7°C° 0 mm 4 mps 750 mmHg 96%
05:00 +7°C° 0 mm 4 mps 750 mmHg 93%
06:00 +8°C° 0 mm 5 mps 750 mmHg 91%
07:00 +9°C° 0 mm 5 mps 751 mmHg 88%
08:00 +10°C° 0.1 mm 5 mps 751 mmHg 83%
09:00 +12°C° 0.1 mm 5 mps 751 mmHg 78%
10:00 +13°C° 0.1 mm 5 mps 751 mmHg 73%
11:00 +14°C° 0.1 mm 5 mps 751 mmHg 67%
12:00 +15°C° 0.1 mm 5 mps 751 mmHg 61%
13:00 +16°C° 0.1 mm 5 mps 751 mmHg 55%
14:00 +15°C° 0.1 mm 5 mps 752 mmHg 58%
15:00 +15°C° 0.1 mm 4 mps 752 mmHg 61%
16:00 +15°C° 0.1 mm 4 mps 752 mmHg 64%
17:00 +14°C° 0.1 mm 3 mps 752 mmHg 67%
18:00 +13°C° 0.1 mm 3 mps 753 mmHg 71%
19:00 +13°C° 0.1 mm 2 mps 753 mmHg 75%
20:00 +12°C° 0 mm 2 mps 753 mmHg 80%
21:00 +10°C° 0 mm 2 mps 754 mmHg 85%
22:00 +8°C° 0 mm 2 mps 754 mmHg 90%
23:00 +8°C° 0 mm 3 mps 754 mmHg 92%

19 Mayo, Miércoles

Tiempo Temperatura Precipitaciones Viento Presión Humedad
00:00 +7°C° 0 mm 3 mps 754 mmHg 93%
01:00 +7°C° 0 mm 3 mps 755 mmHg 95%
02:00 +5°C° 0 mm 3 mps 755 mmHg 95%
03:00 +5°C° 0 mm 3 mps 755 mmHg 95%
04:00 +5°C° 0 mm 3 mps 755 mmHg 95%
05:00 +6°C° 0 mm 4 mps 755 mmHg 90%
06:00 +7°C° 0 mm 4 mps 756 mmHg 84%
07:00 +8°C° 0 mm 5 mps 756 mmHg 78%
08:00 +10°C° 0.1 mm 5 mps 756 mmHg 73%
09:00 +12°C° 0.1 mm 5 mps 756 mmHg 68%
10:00 +13°C° 0.1 mm 6 mps 756 mmHg 62%
11:00 +14°C° 0.1 mm 5 mps 756 mmHg 58%
12:00 +14°C° 0.1 mm 5 mps 756 mmHg 54%
13:00 +15°C° 0.1 mm 5 mps 756 mmHg 50%
14:00 +15°C° 0.1 mm 5 mps 756 mmHg 55%
15:00 +14°C° 0.1 mm 5 mps 756 mmHg 61%
16:00 +14°C° 0.1 mm 5 mps 756 mmHg 67%
17:00 +13°C° 0.4 mm 5 mps 756 mmHg 72%
18:00 +12°C° 0.4 mm 4 mps 756 mmHg 78%
19:00 +11°C° 0.4 mm 3 mps 756 mmHg 84%
20:00 +10°C° 0.1 mm 3 mps 756 mmHg 87%
21:00 +9°C° 0.1 mm 3 mps 756 mmHg 91%
22:00 +8°C° 0.1 mm 3 mps 757 mmHg 94%
23:00 +8°C° 0 mm 3 mps 757 mmHg 95%

20 Mayo, Jueves

Tiempo Temperatura Precipitaciones Viento Presión Humedad
00:00 +8°C° 0 mm 3 mps 757 mmHg 95%
01:00 +7°C° 0 mm 3 mps 757 mmHg 96%
02:00 +7°C° 0 mm 3 mps 757 mmHg 96%
03:00 +5°C° 0 mm 3 mps 757 mmHg 96%
04:00 +5°C° 0 mm 3 mps 757 mmHg 97%
05:00 +7°C° 0 mm 3 mps 757 mmHg 93%
06:00 +7°C° 0 mm 4 mps 757 mmHg 90%
07:00 +8°C° 0 mm 5 mps 758 mmHg 86%
08:00 +10°C° 0.1 mm 5 mps 757 mmHg 78%
09:00 +12°C° 0.1 mm 5 mps 757 mmHg 71%
10:00 +13°C° 0.1 mm 6 mps 757 mmHg 63%
11:00 +14°C° 0.1 mm 5 mps 757 mmHg 60%
12:00 +14°C° 0.1 mm 5 mps 756 mmHg 56%
13:00 +15°C° 0.1 mm 5 mps 756 mmHg 53%
14:00 +15°C° 0 mm 5 mps 756 mmHg 53%
15:00 +15°C° 0 mm 4 mps 755 mmHg 54%
16:00 +17°C° 0 mm 4 mps 755 mmHg 54%
17:00 +14°C° 0.1 mm 4 mps 755 mmHg 62%
18:00 +13°C° 0.1 mm 3 mps 754 mmHg 70%
19:00 +12°C° 0.1 mm 3 mps 754 mmHg 78%
20:00 +11°C° 0.2 mm 3 mps 754 mmHg 82%
21:00 +11°C° 0.2 mm 3 mps 753 mmHg 86%
22:00 +10°C° 0.2 mm 3 mps 753 mmHg 90%
23:00 +10°C° 0.2 mm 3 mps 753 mmHg 91%
Mostrar más

Necesitamos Su Consentimiento

Meteoprog y nuestros Proveedores de Servicios pueden almacenar y acceder a sus datos personales como cookies, identificadores de dispositivo u otras tecnologías similares de su dispositivo y procesar dichos datos para personalizar contenido y anuncios, además de ofrecer funciones de redes sociales y analizar el tráfico.

  • Almacenar y/o acceder a información en su dispositivo

    Se puede almacenar o acceder a cookies, identificadores de dispositivo u otra información de su dispositivo para los fines anteriormente indicados.

  • Anuncios y contenido personalizados, medición de anuncios y contenido, percepciones del público, y desarrollo de productos

    Los anuncios y el contenido pueden personalizarse en base a su perfil. Se pueden añadir más datos para personalizar mejor los anuncios y contenidos. Se puede medir el rendimiento de los anuncios y contenidos. Se puede obtener la percepción sobre el público que ha visto los anuncios y contenidos. Dichos datos pueden usarse para desarrollar o mejorar la experiencia del usuario, sistemas y software.

Al hacer clic en ‘Estoy De Acuerdo’ usted permitirá el uso de las cookies, identificadores de dispositivo, balizas web u otras tecnologías similares indicadas. Su configuración puede cambiarse desde el navegador de su dispositivo.

Para ciertos fines, los intereses legítimos pueden ser considerados por encima del consentimiento. Puede leer más sobre ello en nuestra Política de Privacidad y Cookies.